Home > Time Zones > World Clock > Weather > U.S.A. > Gary > Past weeks

Flag for U.S.A. Weather past 2 weeks in Gary, Indiana, U.S.A.

Now
67 °F

Clear.


Feels Like: 67 °F
Forecast: 65 / 75 °F
Wind: 7 mph from South

Location: Lansing Municipal Airport

Current Time: May 25, 2015 at 9:44:47 PM

Latest Report: May 25, 2015 at 9:15 PM


Visibility: 10 mi

Pressure: 29.94 "Hg

Humidity: 66%

Dew point: 55 °F

Location of GaryLocation

Historic Weather in Gary — Graph

°F

Gary temperature yesterday

Maximum temperature yesterday: 79 °F (at 2:35 PM)
Minimum temperature yesterday: 59 °F (at 1:15 AM)
Average temperature yesterday: 69 °F

Past Weeks' High & Low Weather Summary

 TemperatureHumidityPressure
High80 °F (May 17, 3:55 PM)94% (May 10, 8:55 PM)30.51 "Hg (May 10, 8:55 PM)
Low40 °F (May 14, 2:15 AM)23% (May 21, 5:55 PM)29.79 "Hg (May 11, 3:35 PM)
Average59 °F64%30.11 "Hg
* Reported May 10 8:15 PM — May 25 8:15 PM, Gary, Weather by CustomWeather, © 2015

Note: Actual official high and low records may vary slightly from our data, if they occured in-between our weather recording intervals... More about our weather records

Advertising

Gary weather history for previous 24 hours

 ConditionsComfort  
Time TempWeatherWind HumidityBarometerVisibility
8:15 PM
Mon, May 25
71 °FClear.6 mph62%29.93 "Hg10 mi
7:55 PM75 °FSunny.6 mph53%29.93 "Hg10 mi
7:35 PM77 °FSunny.6 mph50%29.93 "Hg10 mi
7:15 PM78 °FSunny.8 mph44%29.93 "Hg10 mi
6:55 PM78 °FSunny.14 mph42%29.94 "Hg10 mi
6:35 PM79 °FSunny.13 mph43%29.93 "Hg10 mi
6:15 PM79 °FSunny.16 mph42%29.93 "Hg10 mi
5:55 PM80 °FSunny.15 mph43%29.94 "Hg10 mi
5:35 PM79 °FSunny.14 mph45%29.94 "Hg10 mi
5:15 PM79 °FScattered clouds.13 mph46%29.95 "Hg10 mi
4:55 PM78 °FScattered clouds.15 mph48%29.94 "Hg10 mi
4:15 PM78 °FPartly sunny.15 mph48%29.95 "Hg10 mi
3:55 PM78 °FBroken clouds.20 mph50%29.94 "Hg10 mi
3:15 PM77 °FPartly sunny.17 mph51%29.94 "Hg10 mi
2:55 PM77 °FScattered clouds.18 mph50%29.94 "Hg10 mi
2:15 PM76 °FBroken clouds.20 mph55%29.93 "Hg10 mi
1:55 PM76 °FBroken clouds.22 mph57%29.93 "Hg10 mi
1:35 PM74 °FBroken clouds.23 mph66%29.93 "Hg10 mi
1:15 PM73 °FLight rain. Mostly cloudy.20 mph66%29.93 "Hg7 mi
12:55 PM75 °FMostly cloudy.24 mph59%29.92 "Hg10 mi
12:35 PM75 °FMostly cloudy.24 mph61%29.92 "Hg10 mi
12:15 PM74 °FMostly cloudy.24 mph64%29.91 "Hg10 mi
11:55 AM74 °FPartly sunny.23 mph68%29.91 "Hg10 mi
11:15 AM71 °FCloudy.23 mph74%29.91 "Hg10 mi
10:55 AM71 °FCloudy.20 mph73%29.91 "Hg10 mi
10:35 AM71 °FCloudy.15 mph81%29.90 "Hg10 mi
10:15 AM69 °FRain. Cloudy.15 mph86%29.90 "Hg7 mi
9:55 AM67 °FLight rain. Cloudy.20 mph88%29.90 "Hg4 mi
9:35 AM71 °FRain. Cloudy.26 mph77%29.90 "Hg4 mi
9:15 AM72 °FMostly cloudy.23 mph73%29.89 "Hg10 mi
8:55 AM72 °FMostly cloudy.22 mph76%29.89 "Hg10 mi
8:15 AM70 °FCloudy.15 mph80%29.88 "Hg10 mi
7:55 AM70 °FPartly sunny.16 mph82%29.89 "Hg10 mi
7:35 AM69 °FScattered clouds.16 mph85%29.88 "Hg10 mi
7:15 AM68 °FLight rain. Cloudy.15 mph87%29.88 "Hg4 mi
6:55 AM70 °FOvercast.17 mph77%29.88 "Hg10 mi
6:35 AM70 °FLight rain. Overcast.15 mph78%29.89 "Hg10 mi
6:15 AM70 °FDrizzle. Overcast.18 mph77%29.89 "Hg10 mi
5:55 AM70 °FOvercast.12 mph76%29.89 "Hg10 mi
5:15 AM69 °FPassing clouds.14 mph76%29.88 "Hg10 mi
4:55 AM69 °FPassing clouds.12 mph75%29.88 "Hg10 mi
4:35 AM69 °FPassing clouds.14 mph74%29.88 "Hg10 mi
4:15 AM69 °FLight rain. Passing clouds.12 mph76%29.88 "Hg10 mi
3:55 AM70 °FPassing clouds.12 mph73%29.88 "Hg10 mi
3:35 AM71 °FPassing clouds.16 mph68%29.88 "Hg10 mi
3:15 AM72 °FClear.14 mph67%29.88 "Hg10 mi
2:55 AM72 °FPassing clouds.18 mph65%29.88 "Hg10 mi
2:15 AM72 °FClear.15 mph64%29.88 "Hg10 mi
1:55 AM72 °FClear.13 mph63%29.90 "Hg10 mi
1:35 AM72 °FPassing clouds.13 mph63%29.90 "Hg10 mi
1:15 AM73 °FClear.15 mph62%29.91 "Hg10 mi
12:55 AM73 °FPassing clouds.13 mph62%29.92 "Hg10 mi
12:35 AM73 °FPartly cloudy.13 mph60%29.93 "Hg10 mi
12:15 AM73 °FPartly cloudy.14 mph60%29.94 "Hg10 mi
11:55 PM
Sun, May 24
73 °FClear.14 mph60%29.94 "Hg10 mi
11:35 PM74 °FClear.15 mph59%29.94 "Hg10 mi
11:15 PM74 °FClear.15 mph59%29.95 "Hg10 mi
10:55 PM75 °FClear.20 mph56%29.95 "Hg10 mi
10:15 PM75 °FPassing clouds.20 mph55%29.95 "Hg10 mi
9:55 PM76 °FPassing clouds.14 mph52%29.94 "Hg10 mi
9:35 PM76 °FPassing clouds.16 mph53%29.95 "Hg10 mi
9:15 PM75 °FPassing clouds.13 mph53%29.94 "Hg10 mi
Weather by CustomWeather, © 2015

See weather overviewHow to use our weather pages